FW7319 Weather Reports


time (UTC)temp
C
wind
direction
speed
KPH
gust
KPH
rain 1hr
cm
rain 24hr
cm
rain mn
cm
humidity
%
barometer
mb
20260507191600 8 355 0.0 0.0 0.00 0.00 0.00 74 1018.8
20260507190111 9 355 0.0 0.0 0.00 0.00 0.00 73 1018.8
20260507184607 10 355 0.0 0.0 0.00 0.00 0.00 72 1018.5
20260507183000 10 355 0.0 0.0 0.00 0.00 0.00 71 1018.6
20260507181501 11 355 0.0 0.0 0.00 0.00 0.00 70 1018.5
20260507180100 11 355 0.0 0.0 0.00 0.00 0.00 69 1018.6
20260507174602 11 355 0.0 1.6 0.00 0.00 0.00 69 1018.4
20260507173101 11 355 0.0 3.2 0.00 0.00 0.00 67 1018.2
20260507171606 11 355 0.0 3.2 0.00 0.00 0.00 67 1018.2
20260507170117 11 348 0.0 3.2 0.00 0.00 0.00 65 1018.1
20260507164604 11 355 0.0 3.2 0.00 0.00 0.00 66 1018.0
20260507163004 11 5 0.0 4.8 0.00 0.00 0.00 66 1017.9
20260507161622 11 332 0.0 3.2 0.00 0.00 0.00 65 1018.0
20260507160011 11 5 0.0 3.2 0.00 0.00 0.00 65 1018.2
20260507154629 11 360 1.6 4.8 0.00 0.00 0.00 65 1018.1
20260507153108 11 11 1.6 4.8 0.00 0.00 0.00 63 1018.1
20260507151515 11 17 0.0 3.2 0.00 0.00 0.00 64 1018.0
20260507150110 12 107 0.0 3.2 0.00 0.00 0.00 64 1017.9
20260507144552 12 22 1.6 6.4 0.00 0.00 0.00 64 1017.8
20260507143140 12 20 3.2 6.4 0.00 0.00 0.00 64 1018.0
20260507141615 12 18 1.6 6.4 0.00 0.00 0.00 63 1017.9
20260507140005 12 11 3.2 6.4 0.00 0.00 0.00 59 1017.9
20260507134542 12 23 3.2 8.0 0.00 0.00 0.00 60 1017.9
20260507133105 12 16 3.2 8.0 0.00 0.00 0.00 58 1017.8
20260507131548 13 23 3.2 6.4 0.00 0.00 0.00 56 1017.7
20260507130143 13 339 0.0 6.4 0.00 0.00 0.00 58 1017.8
20260507124621 13 11 0.0 6.4 0.00 0.00 0.00 54 1017.6
20260507123157 13 350 1.6 6.4 0.00 0.00 0.00 55 1017.6
20260507121502 13 22 1.6 9.7 0.00 0.00 0.00 58 1017.6
20260507120050 12 323 1.6 6.4 0.00 0.00 0.00 56 1017.5
20260507114552 13 329 0.0 4.8 0.00 0.00 0.00 62 1017.4
20260507113143 13 15 0.0 6.4 0.00 0.00 0.00 61 1017.5
20260507111600 13 23 1.6 9.7 0.00 0.00 0.00 62 1017.4
20260507110149 13 300 1.6 6.4 0.00 0.00 0.00 62 1017.5
20260507104623 13 355 0.0 6.4 0.00 0.00 0.00 64 1017.4
20260507103155 12 360 1.6 8.0 0.00 0.00 0.00 59 1017.4
20260507101624 13 332 0.0 4.8 0.00 0.00 0.00 59 1017.3
20260507100056 12 355 0.0 4.8 0.00 0.00 0.00 54 1017.1
20260507094626 12 314 0.0 4.8 0.00 0.00 0.00 56 1016.9
20260507093040 12 5 1.6 8.0 0.00 0.00 0.00 59 1016.7
20260507091628 12 11 3.2 6.4 0.00 0.00 0.00 59 1016.6
20260507090006 12 330 0.0 4.8 0.00 0.00 0.00 64 1016.8
20260507084622 11 346 0.0 3.2 0.00 0.00 0.00 66 1016.7
20260507083010 11 34 1.6 4.8 0.00 0.00 0.00 67 1016.7
20260507081501 11 286 1.6 6.4 0.00 0.00 0.00 69 1016.6
20260507080014 11 276 0.0 1.6 0.00 0.00 0.00 72 1016.4
20260507074505 11 182 0.0 1.6 0.00 0.00 0.00 70 1016.3
20260507073100 10 264 0.0 3.2 0.00 0.00 0.00 73 1016.1
20260507071545 10 265 0.0 1.6 0.00 0.00 0.00 73 1016.1
20260507070141 10 244 0.0 3.2 0.00 0.00 0.00 73 1016.0
20260507064604 10 245 0.0 1.6 0.00 0.00 0.00 74 1015.8
20260507063142 10 246 0.0 1.6 0.00 0.00 0.00 75 1015.8
20260507061547 8 202 0.0 6.4 0.00 0.00 0.00 78 1015.5
20260507060057 8 223 0.0 4.8 0.00 0.00 0.00 82 1015.6
20260507054613 7 225 0.0 3.2 0.00 0.00 0.00 86 1015.4
20260507053140 6 219 0.0 1.6 0.00 0.00 0.00 91 1015.5
20260507051607 5 219 0.0 1.6 0.00 0.00 0.00 91 1015.4
20260507050152 3 218 0.0 0.0 0.00 0.00 0.00 90 1015.2
20260507044618 3 218 0.0 0.0 0.00 0.00 0.00 88 1015.1
20260507043009 2 218 0.0 0.0 0.00 0.00 0.00 88 1014.8
20260507041508 2 218 0.0 0.0 0.00 0.00 0.00 87 1014.6
20260507040050 2 218 0.0 0.0 0.00 0.00 0.00 86 1014.5
20260507034518 2 218 0.0 0.0 0.00 0.00 0.00 86 1014.5
20260507033108 2 218 0.0 0.0 0.00 0.00 0.00 86 1014.5
20260507031601 2 218 0.0 0.0 0.00 0.00 0.00 85 1014.5
20260507030154 2 218 0.0 0.0 0.00 0.00 0.00 85 1014.5
20260507024633 3 218 0.0 0.0 0.00 0.00 0.00 85 1014.3
20260507023051 3 218 0.0 0.0 0.00 0.00 0.00 84 1014.2
20260507021549 3 218 0.0 0.0 0.00 0.00 0.00 83 1014.1
20260507020109 3 218 0.0 0.0 0.00 0.00 0.00 83 1014.1
20260507014604 3 218 0.0 0.0 0.00 0.00 0.00 82 1014.1
20260507013106 4 218 0.0 0.0 0.00 0.00 0.00 82 1014.0
20260507011550 5 218 0.0 0.0 0.00 0.00 0.00 82 1014.0
20260507010104 5 218 0.0 0.0 0.00 0.00 0.00 81 1014.1
20260507004548 5 218 0.0 0.0 0.00 0.00 0.00 81 1014.1
20260507003106 6 218 0.0 1.6 0.00 0.00 0.00 81 1014.0
20260507001553 6 218 0.0 1.6 0.00 0.00 0.00 81 1014.0
20260507000109 6 224 0.0 3.2 0.00 0.00 0.00 81 1014.0
20260506234614 6 200 0.0 4.8 0.00 0.00 0.00 80 1013.7
20260506233154 6 192 0.0 1.6 0.00 0.00 0.00 78 1013.8
20260506231517 6 229 0.0 1.6 0.00 0.00 0.00 77 1013.7
20260506230151 6 212 0.0 3.2 0.00 0.00 0.00 77 1013.7
20260506224608 6 235 0.0 1.6 0.00 0.00 0.00 76 1013.7
20260506223147 6 165 0.0 1.6 0.00 0.00 0.00 76 1013.6
20260506221607 6 165 0.0 1.6 0.00 0.00 0.00 75 1013.5
20260506220113 6 161 0.0 1.6 0.00 0.00 0.00 73 1013.4
20260506214604 7 161 0.0 1.6 0.00 0.00 0.00 73 1013.5
20260506213001 7 153 0.0 1.6 0.00 0.00 0.00 73 1013.3
20260506211633 7 250 0.0 0.0 0.00 0.00 0.00 71 1013.3
20260506210007 7 250 0.0 0.0 0.00 0.00 0.00 71 1013.2
20260506204503 7 250 0.0 1.6 0.00 0.00 0.00 69 1013.1
20260506203105 7 250 0.0 3.2 0.00 0.00 0.00 68 1013.0
20260506201600 8 264 0.0 1.6 0.00 0.00 0.00 66 1012.9
20260506200104 8 265 0.0 1.6 0.00 0.00 0.00 66 1012.9
20260506194628 8 265 0.0 1.6 0.00 0.00 0.00 66 1012.7
20260506193112 8 328 0.0 1.6 0.00 0.00 0.00 67 1012.6